ONEWEB-0060 (45455 NORAD) Tracking and Keplerian Element Data

This shows tracking and keplerian element data for the satellite.

Feedback or suggestion? Click here.




ElementValue
Catalog45455
NameONEWEB-0060
Epoch Orbit176
Epoch Day196.91667824
Epoch Year2020
RAAN101.3559
Inclination87.5595
Eccentricity0.002304
Argument of Perigee244.6579
Mean Anonmoly22.4641
Mean Motion14.90092383
Decay Rate-0.00051257
L11 45455U 20020AH 20196.91667824 -.00051257 00000-0 -53268-2 0 9996
L22 45455 87.5595 101.3559 0023040 244.6579 22.4641 14.90092383 1766

Live tracking and technical data element details for ONEWEB-0060 (NORAD 45455). ONEWEB-0060 can be tracked NOW for your location showing map with azimuth and elevation plus other details from your city location.

Track the satellite on the map from your city or location and see movement details for azimuth, elevation, latitude, longitude, range, height, and movement on the map or in text.







IsCatalogInMostPopularTable: catalog: 45455, numindb: 23
Update: records affected: 1



GetName: 45455 ONEWEB-0060

Hit Count: updated at: Thu, 16 Jul 2020 02:37:38 GMT